Погода в Урицке

Погода в Урицке : погода сейчас, прогноз погоды и архив. Всё, что Вы хотите узнать о погоде в Урицке!

Поиск расширенной информации на нашем сайте:

Другие новости

Новости СМИ2

Главная страница сайта

Новости сайта

02.10.2013

Напоминаем, что на нашем новом сайте вы можете получить высокодетализированные прогнозы погоды по пунктам России, СНГ и мира (включающие важные для авиации метеовеличины, такие как направление и скорость ветра, видимость, явления погоды, количество и форма облачности, нижняя и верхняя граница облачности), а также ознакомиться с разнообразными материалами по авиационной метеорологии и подборкой полезных ссылок на эту тему.

Сайт Метеоцентр.Азия посвящён разработке технологий оптимизации авиаметеорологического обслуживания, включая проектирование и перспективное создание нескольких автоматизированных авиаметеорологических систем:
- система выпуска высокодетальных прогностических карт явлений погоды для нижнего воздушного пространства по России и ближнему зарубежью;
- система верификации прогнозов TAF (выпускаемых синоптиками официальных АМСГ РФ и ближнего зарубежья) и AUTOTAF (выпускаемых сайтом Метеоцентр.Азия) - выявление ошибок, онлайн-сопоставление с фактической погодой METAR, автоматическое внесение коррективов в прогнозы при резком отклонении фактической погоды от прогноза, подсчёт оправдываемости прогнозов по элементам и в целом;
- система обработки, анализа и отображения авиаметеорологической информации для применения провайдерами метеорологической информации.

Рекомендуем: Ролмастер изготовление Рольставней forec.ru.

Погода в Урицке - сегодня

Время (UTC), дата Ветер
(°,м/с) 
Видим.   Явления Облачность Т
(°С)
Тd
(°С)
f(%) Тe
(°С)
Pmin
(гПа)
dP
(гПа)
Po
(мм)
O2
(г/м3)
Тmin Tmax R s Состояние
почвы
03 25.06.17 110 (В) 20000 м    3/0 верхняя 
[Ci sp]
+20.4 +14 67 +28  1007.1  -0.7  737  273           
06 25.06.17 110 (В) 20000 м    3/0 верхняя 
[Ci sp]
+24.1 +15.7 59 +35  1006.1  -0.7  736  269  +12.3         
09 25.06.17 170 (Ю) 20000 м    5/0 верхняя 
[Ci sp]
+26.5 +15.5 51 +37  1004.5  -1.3  735  267           
12 25.06.17 150 (ЮВ) 20000 м    5/3 1000 м верхняя 
[Cu med, cong|Ci sp]
+27.3 +15.1 47 +37  1002.1  -2.4  733  266           
15 25.06.17 250 (З) 20000 м    9/9 1000 м 
[Cu med, cong]
+22.3 +11.4 50 +26  1003.1  0.6  734  271    +27.7       
18 25.06.17 230 (ЮЗ) н/о    8/8 600 м 
[Cu med, cong]
+17.9 +10.3 61 +20  1003.6  0.1  734  276    +27.7       
21 25.06.17 270 (З) н/о    3/3 600 м 
+14 +8 67 +13  1002.5  1.2  735  280           
00 26.06.17 250 (З) 20000 м    6/0 верхняя 
[Ci sp]
+11.2 +6.1 71 +10  1006.8  1.3  736  284           
03 26.06.17 260 (З) 20000 м    8/0 верхняя 
[Ci sp]
+14.1 +8.1 67 +13  1007.8  1.3  737  281           
06 26.06.17 260 (З) 20000 м    8/5 600 м верхняя 
[Cu med, cong|Ci sp]
+18.4 +10.6 60 +20  1008.2  0.7  737  276  +11         
09 26.06.17 230 (ЮЗ) 20000 м    8/8 600 м 
[Cu med, cong]
+20.1 +11 56 +23  1008.4  0.4  738  275           
12 26.06.17 270 (З) 20000 м    8/5 1000 м верхняя 
[Cu med, cong|Ci sp]
+21.4 +12 55 +26  1008.5  0.2  738  273           
15 26.06.17 260 (З) 20000 м    6/6 600 м 
[Cu med, cong]
+19.8 +11.4 58 +23  1008.9  0.2  738  275    +21.9       
18 26.06.17 230 (ЮЗ) н/о    3/3 600 м 
[Sc]
+14.8 +7.8 63 +15  1011  1.7  739  281    +21.9       
21 26.06.17 тихо ()   н/о    ясно 
+11.3 +5.1 66 +11  1012  0.6  740  285           
00 27.06.17 230 (ЮЗ) 20000 м    ясно 
+10 +5 71 +10  1013.1  740  287           
03 27.06.17 290 (З) 20000 м    ясно 
+17.8 +11.2 65 +22  1013.4  0.9  741  278           
06 27.06.17 300 (СЗ) 20000 м    ясно 
+21.2 +11.8 55 +25  1013.8  0.7  742  275  +9.8         
09 27.06.17 280 (З) 20000 м    3/3 1000 м 
[Cu med, cong]
+24.3 +13.5 51 +31  1014.4  0.9  742  272           
12 27.06.17 270 (З) 20000 м    5/5 1000 м 
[Cu med, cong]
+26.2 +14.8 49 +35  1013.5  -0.7  742  270           
15 27.06.17 230 (ЮЗ) 20000 м    3/3 1000 м 
[Cu med, cong]
+25 +14.4 52 +33  1011.4  -2.1  740  270    +27       
18 27.06.17 210 (ЮЗ) н/о    3/3 600 м 
[Cu med, cong]
+20.2 +11.1 56 +23  1012.1  0.3  740  276    +27       
21 27.06.17 200 (Ю) н/о    ясно 
+18 +10.7 62 +20  1011.8  -0.6  740  278           
00 28.06.17 210 (ЮЗ) 20000 м    5/0 верхняя 
[Ci sp]
+17.1 +10.7 66 +19  1011.9  0.1  740  279           
03 28.06.17 210 (ЮЗ) 20000 м    3/0 верхняя 
[Ci sp]
+21.4 +13.4 60 +28  1011.6  0.1  740  274           
Время (UTC), дата Ветер
(°,м/с) 
Видим.   Явления Облачность Т
(°С)
Тd
(°С)
f(%) Тe
(°С)
Pmin
(гПа)
dP
(гПа)
Po
(мм)
O2
(г/м3)
Тmin Tmax R s Состояние
почвы

Для получения пояснительной информации подведите курсор к названию столбца.

ПОГОДА в Урицке - архив

Всё, что Вы хотите узнать о погоде в Урицке - удобно и подробно!

Выберите нужную дату (начиная с 1 января 2015* года) и нажмите кнопку "Найти".
Будут отображены архивные сводки погоды по пункту Урицк, начиная с указанной даты.


Отображать данные в формате CSV (для использования в таблицах Excel)


Внимание! Наш архив погоды предназначен исключительно для личного некоммерческого использования в познавательных целях. Если Вам необходимы официальные справки о состоянии погоды (для производственных, юридических, коммерческих и т.п. целей), обращайтесь в органы Росгидромета.

*Примечание: данная дата относится к архиву по метеостанциям СССР (Россия, СНГ, Балтия).
Архив по метеостанциям Зарубежной Европы и Азии (кроме Китая) хранится 10 дней, по другим регионам земного шара (Китай, Африка, Америка, Австралия, Океания) - 1 день.

Урицк - район местоположения метеостанции


Название, широта, долгота, высота метеостанции:
Урицк 53.3°ш. 65.6°д. 216 м над ур. моря [Казахстан]

Дополнительная информация

В oтличие oт бoльшинства пoгoдных сайтoв мы публикуем пoдрoбную метеoинфoрмацию в детальнoм прoфессиoнальнoм фoрмате.

Характеристики температуры и влажнoсти вoздуха измеряются на высoте 2 м в тени вдали oт зданий и деревьев.
Скoрoсть ветра измеряется на высoте 10 м (на урoвне рoста челoвека скoрoсть ветра ниже в 1.5-2 раза). Если метеoстанция нахoдится в гoрoде или в лесу, тo скoрoсть ветра занижена на 2-4 м/с пo сравнению с oткрытым местoм. Скoрoсть ветра над акватoриями крупных рек и oзёр, а также на вершинах хoлмoв на 2-5 м/с выше, чем в oбычных услoвиях.
Атмoсфернoе давление в разных тoчках местнoсти мoжет значительнo oтличаться oт давления на метеoстанции, в зависимoсти oт услoвий рельефа (при пoдъёме на 10 м давление пoнижается примернo на 1 мм рт.ст.).